Regional Weather Roundup
Issued by NWS Albany, NY

Home | Current Version | Previous Version | Text Only | Print | Product List | Glossary On
Versions: 1 2 3 4 5 6 7 8 9 10 11 12 13 14 15 16 17 18 19 20 21 22 23 24 25 26 27 28 29 30 31 32 33 34 35 36 37 38 39 40 41 42 43 44 45 46 47 48 49 50
791
ASUS41 KALY 241210
RWRALY

NEW YORK STATE HOURLY WEATHER ROUNDUP
NATIONAL WEATHER SERVICE ALBANY NY
700 AM EST TUE JAN 24 2017

NOTE: "FAIR" INDICATES FEW OR NO CLOUDS BELOW 12,000 FEET WITH NO
SIGNIFICANT WEATHER AND/OR NO OBSTRUCTIONS TO VISIBILITY.

NYZ032-033-038>043-046>054-057>066-NYZ062>081-082-084-241300-
EAST


CITY           SKY/WX    TMP DP  RH WIND       PRES   REMARKS
ALBANY         LGTSLEET  33  30  88 N10       29.56F WCI  25
GLENS FALLS    LGT RAIN  34  30  85 N9        29.60R WCI  27
POUGHKEEPSIE   CLOUDY    32  31  96 N9        29.45S FOG     WCI  24
NEWBURGH       FRZ DRZL  32  32 100 N14G23    29.45R FOG     WCI  22
MONTGOMERY     RAIN      34  31  88 NE20G26   29.43F FOG     WCI  23
WHITE PLAINS   LGT RAIN  36  33  89 N15G22    29.35F FOG     WCI  27
ISLIP          LGT RAIN  40  39  97 NE24G33   29.30S FOG     WCI  29
NEW YORK CITY  LGT RAIN  38  35  89 N17G24    29.35F FOG     WCI  28
CENTRAL PARK   CLOUDY    35  34  96 N9G22     29.37F FOG     WCI  28
$$

NYZ005>009-017-018-044>046-055-056-241300-
CENTRAL


CITY           SKY/WX    TMP DP  RH WIND       PRES   REMARKS
FULTON         LGT SNOW  31  29  92 N13G21    29.63F FOG     WCI  21
SYRACUSE       LGT SNOW  31  30  96 NW9       29.61F FOG     WCI  23
ROME           LGT SNOW  32  32 100 NW7       29.61S FOG     WCI  26
ELMIRA         LGT SNOW  33  29  85 VRB3      29.58S FOG
BINGHAMTON     LGT SNOW  30  29  96 N12       29.51S VSB 1   WCI  20
MONTICELLO     CLOUDY    32  30  93 NE7       29.45S WCI  26
$$

NYZ026>034-041>043-087-241300-
NORTH


CITY           SKY/WX    TMP DP  RH WIND       PRES   REMARKS
WATERTOWN      FRZ RAIN  29  28  96 NE15      29.67S FOG     WCI  18
FORT DRUM      NOT AVBL
OGDENSBURG     MIX PCPN  28  25  87 NE13      29.72S WCI  18
MASSENA        FRZ RAIN  27  22  81 NE18G30   29.76S WCI  14
SARANAC LAKE   FRZ RAIN  27  24  89 NE10      29.59F FOG     WCI  17
PLATTSBURGH    FRZ RAIN  30  27  88 N16G24    29.71F FOG     WCI  19
$$

NYZ001>004-010>016-019>021-085-241300-
WEST


CITY           SKY/WX    TMP DP  RH WIND       PRES   REMARKS
NIAGARA FALLS  CLOUDY    33  28  81 NE12      29.67S WCI  24
BUFFALO        FLURRIES  32  29  88 N7        29.66R WCI  26
DUNKIRK        CLOUDY    33  30  88 NE9       29.67R WCI  25
JAMESTOWN      CLOUDY    30  28  93 N8        29.59R WCI  23
WELLSVILLE     LGT SNOW  29  27  92 VRB3      29.56S FOG
ROCHESTER      LGT SNOW  33  31  92 NE13      29.66S FOG     WCI  24
PENN YAN       LGT SNOW  32  28  85 VRB5      29.61S FOG     WCI  27
$$

             KEY
       WCI = WIND CHILL INDEX
       VSB = VISIBILITY
       HX  = HEAT INDEX
$$




USA.gov is the U.S. government's official web portal to all federal, state and local government web resources and services.